Theta_e
305 305 304 303 304 304 303 302 301 299 300 303 303 307 307 307 308 311 309 311 314 315 315 315 314 313 313 313 312 311 310 309 308 308 308 308 310 311
306 306 305 304 304 304 303 304 303 301 299 302 304 305 307 306 308 309 308 310 310 311 311 313 313 313 313 313 312 310 310 309 308 307 306 306 307 308
306 306 307 306 306 305 305 304 304 302 299 302 303 305 304 305 306 307 307 307 306 307 309 310 311 311 312 313 312 311 309 308 307 306 305 306 306 306
308 306 306 306 306 307 306 306 307 304 304 303 302 302 301 304 303 303 305 305 305 305 307 308 308 308 308 308 309 310 310 310 307 307 305 304 305 306
307 307 306 305 307 305 305 306 308 308 305 302 300 301 299 301 301 303 303 303 303 305 304 304 305 306 306 306 307 308 308 307 307 306 307 305 304 304
307 306 306 307 305 305 307 308 309 306 302 300 300 298 298 299 299 300 300 301 301 302 302 303 305 305 304 304 305 306 306 305 304 305 304 304 304 304
306 306 306 307 312 313 311 308 304 302 300 298 297 296 297 298 298 299 297 298 300 300 300 302 302 303 303 302 303 304 305 304 303 303 303 302 302 302
305 304 306 309 309 306 306 304 303 301 299 297 296 296 297 297 300 299 297 295 294 300 298 300 301 301 302 302 301 302 304 304 303 303 303 302 302 301
304 306 308 305 303 300 302 301 301 302 301 300 297 297 296 299 300 299 297 295 296 299 297 298 299 298 303 302 301 301 302 302 302 302 302 302 301 300
307 308 306 302 299 300 300 299 299 300 300 301 299 300 300 300 299 300 299 297 298 300 298 296 298 300 303 304 300 301 302 301 301 301 301 301 299 299
306 306 304 300 297 298 300 299 299 300 300 301 301 300 299 299 301 302 299 298 296 298 301 298 298 298 301 302 303 300 301 301 302 301 301 301 300 299
300 303 300 298 295 296 300 299 298 299 299 300 301 301 300 301 300 303 300 297 298 298 301 297 300 299 297 304 303 304 304 301 300 300 300 300 299 303
300 299 300 296 295 295 296 299 298 299 298 298 298 299 300 300 300 300 300 300 298 298 304 301 300 298 297 297 301 303 303 304 304 303 299 298 298 299
300 301 301 295 294 294 296 295 294 296 299 299 298 298 297 297 298 299 301 300 301 300 302 303 300 300 299 297 297 302 304 304 304 304 303 301 298 298
300 298 295 294 293 295 294 294 296 300 299 298 298 296 296 298 300 300 302 302 301 302 301 302 301 302 300 297 297 297 299 301 304 304 304 303 303 301
297 297 296 296 295 296 298 300 300 300 299 298 298 298 297 296 296 298 298 299 296 296 301 302 302 300 298 299 298 297 301 297 301 302 302 304 305 304
295 297 297 297 298 298 298 298 298 297 298 296 296 296 296 297 297 298 296 296 293 293 294 297 299 300 299 299 299 299 299 299 302 301 301 301 303 302
295 295 296 296 296 297 296 296 297 297 297 295 295 295 295 293 291 291 291 292 291 292 292 293 294 295 300 300 301 298 299 299 300 301 300 298 301 302
296 295 295 294 295 296 296 296 296 296 295 295 294 294 291 289 288 288 288 288 288 290 291 292 293 293 293 292 296 299 298 298 299 298 301 300 298 299
295 295 294 294 295 296 296 295 295 294 294 293 290 289 288 287 286 286 287 287 288 288 289 291 292 293 292 293 294 298 295 297 297 296 297 296 298 295
294 293 294 294 294 294 293 293 293 293 290 288 288 287 287 286 286 287 287 285 286 288 287 290 293 287 295 297 295 295 299 296 299 299 298 297 296 296
294 294 294 294 293 293 293 293 291 289 288 287 287 287 287 286 286 287 287 286 287 288 289 291 293 297 297 295 293 293 296 299 298 296 298 298 297 293
294 293 293 293 293 292 291 289 288 288 288 287 287 287 287 286 287 287 288 288 288 289 290 291 293 295 294 294 291 293 293 295 295 295 297 295 296 297
Wind_Speed
2 2 1 2 2 2 1 2 1 2 3 1 3 2 4 4 5 6 7 12 14 13 9 12 13 14 14 14 12 12 11 11 11 12 14 13 13 14
1 3 3 2 3 3 3 3 4 3 4 2 3 3 5 4 6 5 6 9 10 12 11 12 10 13 13 13 12 14 13 13 12 13 14 11 12 13
3 4 5 4 4 3 2 3 4 4 4 4 3 2 4 3 6 5 4 5 6 12 14 14 11 10 10 11 12 12 13 12 12 13 11 11 12 12
5 4 6 4 5 3 3 5 6 4 5 8 2 2 4 4 6 7 4 4 5 9 14 10 9 7 8 8 8 9 10 11 12 14 12 11 12 12
4 5 6 6 6 4 5 5 4 3 3 3 2 2 3 2 3 3 3 5 4 12 10 9 5 8 8 9 9 9 10 10 13 13 12 11 10 9
5 5 6 6 6 6 6 6 4 1 2 2 3 4 2 3 3 3 4 2 6 6 4 5 8 9 11 12 12 13 10 8 8 9 9 8 9 7
5 5 4 6 11 8 5 2 2 2 2 3 3 2 3 3 3 2 3 4 4 3 3 5 6 6 7 8 10 12 10 8 8 8 7 7 8 9
5 3 4 5 2 6 7 6 3 1 1 1 2 3 5 5 3 4 3 2 3 1 2 7 4 6 6 5 9 11 11 10 11 10 11 9 8 10
4 4 4 0 2 3 6 6 4 3 2 2 3 4 5 4 5 6 3 2 5 4 2 7 2 5 6 5 10 10 10 10 9 10 10 10 9 9
5 3 3 3 3 3 3 2 3 3 2 2 5 7 7 8 5 5 4 4 6 6 4 4 1 6 6 6 8 7 8 9 8 8 9 9 8 8
2 3 4 3 4 5 2 2 3 4 4 7 7 9 9 8 8 5 5 4 4 3 3 2 2 3 5 5 3 6 9 10 11 10 10 9 10 9
2 3 5 5 6 7 2 0 4 4 6 9 8 8 8 7 8 4 4 5 5 4 2 3 4 2 3 2 4 5 5 10 12 13 12 11 10 7
3 3 4 7 8 8 6 3 3 3 8 6 5 5 5 5 4 2 3 5 5 5 3 2 3 2 3 4 3 6 5 6 5 6 8 11 10 9
3 3 3 6 7 7 5 5 5 4 3 4 4 5 5 4 4 4 5 4 5 9 9 6 4 4 4 5 6 5 6 6 5 6 3 5 9 10
2 2 6 8 6 5 5 4 1 1 3 4 5 4 3 5 6 5 6 6 7 8 4 4 6 7 5 6 7 6 5 5 5 4 5 6 5 2
2 2 2 3 4 2 2 2 1 2 2 3 5 6 5 4 5 2 4 6 5 7 8 4 4 4 5 6 6 6 7 5 7 7 4 7 5 4
2 1 1 2 2 2 1 3 2 3 3 2 4 6 7 6 6 6 6 6 6 7 7 7 7 7 7 8 4 5 5 6 6 5 5 6 5 2
1 1 2 2 3 3 4 4 4 5 3 3 5 6 6 6 8 8 7 7 7 7 7 7 7 6 2 4 9 6 6 7 8 5 4 3 5 1
1 1 1 2 3 3 3 3 4 3 4 4 4 4 6 7 7 8 8 7 7 7 7 6 5 4 5 5 2 8 6 8 8 6 4 3 3 3
1 1 1 2 2 2 2 2 3 3 2 3 5 5 6 6 8 8 8 8 7 7 7 6 4 3 4 4 4 6 2 5 3 3 2 2 4 3
1 1 1 1 1 2 3 3 3 3 4 6 6 6 6 6 8 7 7 8 8 6 6 6 5 6 6 3 4 4 6 9 7 5 4 4 4 3
1 0 1 1 2 2 2 2 4 5 5 6 6 7 7 6 7 7 6 6 5 5 6 6 6 5 3 3 5 6 7 5 3 5 6 6 3 3
1 1 2 1 1 1 2 3 5 6 7 7 7 7 7 7 6 6 6 6 5 5 5 5 4 2 4 2 3 6 6 5 4 5 4 2 7 11
Wind_Direction
151 195 231 235 217 211 190 184 213 278 293 270 279 262 281 302 307 344 329 322 314 297 290 248 254 265 269 273 271 276 282 287 295 308 310 302 305 305
198 227 242 249 239 230 228 227 217 234 273 222 251 267 291 299 301 328 323 338 349 340 337 324 309 281 260 255 264 272 275 282 286 304 304 298 297 296
260 265 265 255 262 257 240 246 239 204 225 265 246 273 277 288 309 307 302 314 330 332 330 322 326 310 283 268 269 264 270 272 279 285 295 293 295 296
251 245 267 274 274 286 288 273 251 202 225 272 303 300 280 339 306 295 302 309 320 321 316 312 327 353 351 340 316 287 267 263 277 272 273 279 281 287
241 244 260 267 281 295 280 274 276 277 208 238 273 240 265 304 312 294 307 312 312 317 312 302 302 317 316 313 297 287 271 272 278 272 264 253 264 272
241 246 265 265 278 290 287 296 303 359 155 223 289 290 290 303 282 297 305 305 316 322 306 290 300 304 301 301 287 277 268 264 284 262 262 266 265 255
248 261 272 285 297 301 280 2 73 23 347 340 323 293 310 311 310 348 293 314 300 263 296 290 300 293 286 284 281 272 269 261 277 280 269 267 249 242
277 287 286 306 339 82 88 88 99 96 346 321 290 296 295 289 299 305 299 307 305 201 291 292 298 289 280 270 263 267 265 263 277 265 250 253 234 226
232 267 304 311 135 124 87 86 65 32 157 192 285 287 291 294 308 292 258 257 272 288 245 290 252 285 290 273 264 269 267 268 273 272 258 241 228 234
220 238 240 192 192 168 96 56 18 340 280 254 247 280 274 290 268 269 288 296 277 270 204 264 250 285 294 299 275 252 253 263 245 261 263 250 241 237
195 237 191 197 226 160 123 11 351 331 310 304 296 287 289 279 269 283 277 281 279 265 212 262 263 284 299 306 307 275 266 263 264 271 263 253 242 245
130 239 198 209 236 202 197 104 325 319 331 326 327 320 315 306 311 253 271 281 290 289 204 216 282 293 295 267 282 275 267 257 263 261 256 258 250 258
189 215 234 230 231 227 211 208 244 308 314 309 311 315 326 326 318 274 254 262 276 262 291 240 258 248 237 291 290 296 290 294 285 278 254 262 261 245
188 217 277 268 236 248 234 232 257 291 302 314 313 321 319 314 311 312 297 258 234 252 279 262 265 257 282 292 282 305 305 303 285 283 282 275 257 247
181 230 268 272 278 258 238 244 194 295 315 323 310 292 261 285 293 291 295 303 297 287 247 231 237 278 275 267 280 290 314 315 309 300 301 291 281 232
121 250 270 316 256 234 153 146 249 258 276 292 290 301 300 302 292 291 295 315 308 311 312 294 288 278 280 259 248 266 287 303 309 302 282 293 281 251
158 257 302 316 293 277 269 256 263 265 273 300 294 298 302 308 308 314 304 307 294 301 305 311 318 293 258 242 262 270 304 310 308 303 306 299 296 259
122 280 270 281 296 308 283 273 266 273 297 291 293 291 296 310 310 310 304 295 295 297 300 311 315 325 268 221 222 299 303 309 309 302 293 279 299 2
206 185 262 322 322 319 292 263 283 316 310 292 292 301 310 311 311 310 307 299 295 295 298 300 294 302 286 286 273 237 290 313 307 299 277 269 288 304
162 171 269 303 344 328 326 309 320 335 329 312 310 313 314 311 311 307 305 301 299 302 301 295 284 300 298 290 300 289 230 281 309 302 325 293 256 292
163 200 225 61 337 323 337 334 329 327 319 313 310 309 310 309 305 303 300 293 294 294 296 300 308 281 283 259 253 286 312 225 255 298 308 299 313 307
144 340 228 273 305 326 337 331 322 319 314 308 306 304 303 300 301 303 301 303 305 299 295 298 303 323 314 296 310 304 308 319 302 283 267 260 300 301
62 282 229 296 314 330 337 332 320 311 307 303 300 301 301 301 303 291 290 298 300 307 313 314 307 295 309 276 293 303 288 318 335 339 331 268 271 266